Location: Four Corners
(38.2757°N, 122.4608°W)
Time: 00:33:06
(UTC+00:00)

SMAP - Pass Details

Date: 08 December 2019
Orbit: 681 x 684 km, 98.1° (Epoch: 27 January)

Event Time Altitude Azimuth Distance (km) Brightness Sun altitude
Rises 01:10:03 0° 151° (SSE) 3,032 6.4 -4.5°
Reaches altitude 10° 01:12:21 10° 145° (SE) 2,121 5.5 -4.9°
Maximum altitude 01:16:46 46° 72° (ENE) 919 3.3 -5.6°
Drops below altitude 10° 01:21:14 10° 0° (N) 2,135 5.4 -6.4°
Sets 01:23:32 0° 355° (N) 3,055 6.2 -6.9°
